Regional Weather Roundup
Issued by NWS

Home | Current Version | Previous Version | Text Only | Print | Product List | Glossary On
Versions: 1 2 3 4 5 6 7 8 9 10 11 12 13 14 15 16 17 18 19 20 21 22 23 24 25 26 27 28 29 30 31 32 33 34 35 36 37 38 39 40 41 42 43 44 45 46 47 48 49 50
000
ASUS45 KBOI 020610
RWRID
WEATHER ROUNDUP FOR IDAHO
NATIONAL WEATHER SERVICE BOISE ID
1200 AM MDT SAT AUG 02 2014

NOTE: "FAIR" INDICATES FEW OR NO CLOUDS BELOW 12000 FEET
WITH NO SIGNIFICANT WEATHER AND/OR OBSTRUCTIONS TO VISIBILITY

IDZ012-014-020700-
SOUTHWEST IDAHO


CITY           SKY/WX    TMP DP  RH WIND       PRES   REMARKS
BOISE          CLOUDY    83  46  27 CALM      30.00R
CALDWELL       NOT AVBL
MOUNTAIN HOME  CLOUDY    80  40  23 W5        30.02R
$$

IDZ016-017-020700-
SOUTHCENTRAL IDAHO


CITY           SKY/WX    TMP DP  RH WIND       PRES   REMARKS
BURLEY         MOCLDY    69  50  50 N5        30.12R
JEROME         MOCLDY    74  46  36 NE20G28   30.11R
TWIN FALLS     CLOUDY    72  50  45 NE7       30.11R
$$

IDZ019>023-020700-
SOUTHEAST IDAHO


CITY           SKY/WX    TMP DP  RH WIND       PRES   REMARKS
IDAHO FALLS    PTCLDY    58  52  80 N10       30.22R
POCATELLO      CLEAR     62  49  62 N8        30.18R
REXBURG        PTCLDY    59  51  75 NE5       30.22F
$$

IDZ006-010-011-018-031-032-020700-
CENTRAL IDAHO MOUNTAINS


CITY           SKY/WX    TMP DP  RH WIND       PRES   REMARKS
MCCALL         CLOUDY    72  43  35 N8        30.16R
HAILEY         PTCLDY    64  52  63 NW7       30.24R
STANLEY          N/A     55  43  63 SE3       30.33S
SALMON         MOCLDY    61  50  67 E3        30.17S
CHALLIS        CLOUDY    62  50  64 SW5       30.23F
$$

IDZ002-004-006-007-026-020700-
NORTHERN IDAHO


CITY           SKY/WX    TMP DP  RH WIND       PRES   REMARKS
LEWISTON       MOCLDY    80  49  33 S8        29.92R
LOWELL           N/A     67  60  78 CALM      30.02S
COEUR D`ALENE  CLEAR     70  48  46 CALM      29.99F
MULLAN PASS    MOCLDY    64  39  39 SE9       30.26S
$$


USA.gov is the U.S. government's official web portal to all federal, state and local government web resources and services.